{"data":{"norad_id":62402,"intl_designator":"2024-247AB","name":"DJIBOUTI-1B","alt_names":[],"object_type":"PAYLOAD","status":"ACTIVE","operator":null,"country":"DJI","launch_date":"2024-12-21","launch_site_code":"AFWTR","launch_vehicle":null,"mission":null,"orbit_class":"UNKNOWN","rcs_meters":null,"size_class":null,"mass_kg":null,"dimensions":null,"purposes":[],"wikipedia_slug":null,"has_3d_model":false,"image_url":null,"decayed_at":null,"tle_current":{"epoch":"2026-05-25T01:19:22.729152Z","epoch_age_seconds":66982,"freshness":"FRESH","line1":"1 62402U 24247AB  26145.05512418  .00047793  00000+0  74179-3 0  9997","line2":"2 62402  44.9726  15.4612 0007106 188.4739 171.6034 15.53268494 79938","mean_motion":15.53268494,"eccentricity":0.0007106,"inclination_deg":44.9726,"raan_deg":15.4612,"arg_perigee_deg":188.4739,"mean_anomaly_deg":171.6034,"bstar":0.00074179,"rev_number":7993,"period_min":92.707732472684,"perigee_km":402.36892495997,"apogee_km":412.01223251487,"semimajor_km":6785.3275787374,"source":"CELESTRAK","updated_at":"2026-05-25T13:38:02.971536Z"}}}